AXM23 WMKK-VOTR

Flight info

Callsign AXM23
Flight time N/A
Altitude 36000
Route PUGER1A PUGER R461 ISVUR N563 ADKIT T3 TTR
Aircraft A20N/M-SDE2E3FGHIRWXY/LB1

Departure

Time N/A
Airport Kuala Lumpur International Airport (WMKK)

Arrival

Time 2026-05-07 10:51
Airport Tiruchirappalli International Airport (VOTR)
Time Latitude Longitude Altitude Speed Heading
2026-05-07 08:50 6.01852 93.04244 35793 ft 487 kts 294°
2026-05-07 08:50 6.03268 93.01149 35781 ft 488 kts 294°
2026-05-07 08:50 6.06101 92.94955 35785 ft 488 kts 294°
2026-05-07 08:51 6.08932 92.88750 35797 ft 488 kts 295°
2026-05-07 08:51 6.11759 92.82544 35798 ft 489 kts 295°
2026-05-07 08:52 6.14588 92.76336 35802 ft 489 kts 295°
2026-05-07 08:52 6.17418 92.70122 35795 ft 489 kts 295°
2026-05-07 08:53 6.20247 92.63906 35786 ft 489 kts 295°
2026-05-07 08:53 6.23082 92.57675 35784 ft 490 kts 295°
2026-05-07 08:54 6.25917 92.51442 35792 ft 491 kts 295°
2026-05-07 08:54 6.28756 92.45198 35795 ft 491 kts 295°
2026-05-07 08:55 6.31593 92.38955 35798 ft 491 kts 295°
2026-05-07 08:55 6.34433 92.32704 35797 ft 492 kts 295°
2026-05-07 08:56 6.37276 92.26444 35784 ft 492 kts 295°
2026-05-07 08:56 6.40120 92.20179 35785 ft 493 kts 295°
2026-05-07 08:57 6.42965 92.13909 35792 ft 493 kts 295°
2026-05-07 08:57 6.45791 92.07680 35794 ft 493 kts 295°
2026-05-07 08:58 6.48635 92.01407 35803 ft 492 kts 295°
2026-05-07 08:58 6.51478 91.95136 35801 ft 492 kts 295°
2026-05-07 08:59 6.54317 91.88870 35783 ft 492 kts 294°
2026-05-07 08:59 6.57156 91.82602 35784 ft 492 kts 294°
2026-05-07 09:00 6.59994 91.76335 35784 ft 493 kts 294°
2026-05-07 09:00 6.62834 91.70058 35791 ft 493 kts 294°
2026-05-07 09:01 6.65656 91.63820 35792 ft 493 kts 294°
2026-05-07 09:01 6.68496 91.57540 35795 ft 493 kts 294°
2026-05-07 09:02 6.71333 91.51264 35794 ft 493 kts 295°
2026-05-07 09:02 6.74168 91.44989 35801 ft 492 kts 295°
2026-05-07 09:03 6.76998 91.38723 35795 ft 492 kts 295°
2026-05-07 09:03 6.79830 91.32451 35802 ft 492 kts 295°
2026-05-07 09:04 6.82659 91.26183 35798 ft 492 kts 295°
2026-05-07 09:04 6.85483 91.19923 35806 ft 490 kts 294°
2026-05-07 09:05 6.88298 91.13682 35802 ft 489 kts 294°
2026-05-07 09:05 6.91107 91.07450 35794 ft 488 kts 294°
2026-05-07 09:06 6.93910 91.01228 35784 ft 488 kts 294°
2026-05-07 09:06 6.96711 90.95009 35786 ft 487 kts 294°
2026-05-07 09:07 6.99509 90.88795 35781 ft 487 kts 294°
2026-05-07 09:07 7.02289 90.82617 35780 ft 487 kts 294°
2026-05-07 09:08 7.05083 90.76405 35779 ft 487 kts 294°
2026-05-07 09:08 7.07875 90.70197 35782 ft 487 kts 294°
2026-05-07 09:09 7.10668 90.63983 35786 ft 487 kts 294°
2026-05-07 09:09 7.13460 90.57769 35781 ft 487 kts 294°
2026-05-07 09:10 7.16249 90.51559 35784 ft 487 kts 294°
2026-05-07 09:10 7.19038 90.45346 35785 ft 487 kts 294°
2026-05-07 09:11 7.21827 90.39129 35784 ft 487 kts 294°
2026-05-07 09:11 7.24606 90.32932 35787 ft 485 kts 295°
2026-05-07 09:12 7.27381 90.26744 35789 ft 485 kts 295°
2026-05-07 09:12 7.30162 90.20539 35784 ft 485 kts 295°
2026-05-07 09:13 7.32921 90.14380 35789 ft 485 kts 295°
2026-05-07 09:13 7.35695 90.08186 35786 ft 485 kts 295°
2026-05-07 09:14 7.38467 90.01993 35791 ft 485 kts 295°
2026-05-07 09:14 7.41239 89.95796 35779 ft 485 kts 295°
2026-05-07 09:15 7.44014 89.89589 35784 ft 486 kts 295°
2026-05-07 09:15 7.46788 89.83383 35787 ft 486 kts 295°
2026-05-07 09:16 7.49564 89.77172 35789 ft 486 kts 295°
2026-05-07 09:16 7.52341 89.70954 35791 ft 486 kts 295°
2026-05-07 09:17 7.55115 89.64739 35789 ft 486 kts 295°
2026-05-07 09:17 7.57889 89.58521 35792 ft 486 kts 295°
2026-05-07 09:18 7.60661 89.52306 35790 ft 486 kts 295°
2026-05-07 09:18 7.63434 89.46087 35791 ft 486 kts 295°
2026-05-07 09:19 7.66205 89.39870 35785 ft 486 kts 295°
2026-05-07 09:19 7.68976 89.33651 35787 ft 486 kts 295°
2026-05-07 09:20 7.71779 89.27448 35787 ft 486 kts 295°
2026-05-07 09:20 7.74596 89.21302 35786 ft 486 kts 295°
2026-05-07 09:21 7.77428 89.15111 35786 ft 486 kts 295°
2026-05-07 09:21 7.80257 89.08913 35782 ft 486 kts 295°
2026-05-07 09:22 7.83082 89.02718 35791 ft 486 kts 295°
2026-05-07 09:22 7.85907 88.96520 35790 ft 486 kts 295°
2026-05-07 09:23 7.88729 88.90325 35786 ft 486 kts 295°
2026-05-07 09:23 7.91552 88.84126 35782 ft 486 kts 295°
2026-05-07 09:24 7.94355 88.77967 35783 ft 486 kts 295°
2026-05-07 09:24 7.97176 88.71766 35781 ft 486 kts 295°
2026-05-07 09:25 7.99998 88.65560 35787 ft 486 kts 295°
2026-05-07 09:25 8.02815 88.59361 35778 ft 486 kts 295°
2026-05-07 09:26 8.05158 88.54204 35782 ft 486 kts 295°
2026-05-07 09:26 8.07976 88.48000 35780 ft 486 kts 295°
2026-05-07 09:27 8.10791 88.41797 35781 ft 486 kts 295°
2026-05-07 09:28 8.15012 88.32493 35780 ft 486 kts 295°
2026-05-07 09:28 8.17822 88.26294 35782 ft 486 kts 295°
2026-05-07 09:29 8.20632 88.20093 35780 ft 486 kts 295°
2026-05-07 09:29 8.23442 88.13890 35777 ft 486 kts 295°
2026-05-07 09:30 8.26251 88.07684 35779 ft 486 kts 295°
2026-05-07 09:30 8.29058 88.01481 35780 ft 485 kts 295°
2026-05-07 09:31 8.31861 87.95282 35784 ft 485 kts 295°
2026-05-07 09:31 8.34665 87.89081 35793 ft 485 kts 295°
2026-05-07 09:32 8.37463 87.82887 35787 ft 484 kts 295°
2026-05-07 09:32 8.40256 87.76702 35784 ft 484 kts 295°
2026-05-07 09:33 8.43052 87.70510 35788 ft 484 kts 295°
2026-05-07 09:33 8.45822 87.64369 35784 ft 483 kts 295°
2026-05-07 09:34 8.48606 87.58195 35779 ft 483 kts 295°
2026-05-07 09:34 8.51406 87.51984 35778 ft 483 kts 295°
2026-05-07 09:35 8.54185 87.45814 35772 ft 482 kts 295°
2026-05-07 09:35 8.56945 87.39685 35778 ft 482 kts 295°
2026-05-07 09:36 8.59725 87.33508 35772 ft 482 kts 295°
2026-05-07 09:36 8.62500 87.27338 35777 ft 482 kts 295°
2026-05-07 09:37 8.65275 87.21167 35776 ft 482 kts 295°
2026-05-07 09:37 8.68050 87.14993 35778 ft 482 kts 295°
2026-05-07 09:38 8.70825 87.08815 35774 ft 483 kts 295°
2026-05-07 09:38 8.73594 87.02645 35778 ft 482 kts 295°
2026-05-07 09:39 8.76361 86.96478 35782 ft 481 kts 295°
2026-05-07 09:39 8.79125 86.90316 35776 ft 481 kts 295°
2026-05-07 09:40 8.81886 86.84155 35774 ft 481 kts 295°
2026-05-07 09:40 8.84627 86.78037 35778 ft 481 kts 295°
2026-05-07 09:41 8.87384 86.71880 35771 ft 481 kts 295°
2026-05-07 09:41 8.90142 86.65717 35776 ft 481 kts 295°
2026-05-07 09:42 8.92898 86.59558 35777 ft 481 kts 294°
2026-05-07 09:42 8.95653 86.53395 35765 ft 481 kts 295°
2026-05-07 09:43 8.98411 86.47222 35762 ft 482 kts 295°
2026-05-07 09:43 9.01172 86.41042 35772 ft 482 kts 295°
2026-05-07 09:44 9.03934 86.34854 35773 ft 483 kts 295°
2026-05-07 09:44 9.06698 86.28657 35778 ft 483 kts 295°
2026-05-07 09:45 9.09466 86.22451 35768 ft 484 kts 294°
2026-05-07 09:45 9.12214 86.16285 35781 ft 484 kts 294°
2026-05-07 09:46 9.14982 86.10072 35776 ft 484 kts 294°
2026-05-07 09:46 9.17747 86.03860 35775 ft 484 kts 294°
2026-05-07 09:47 9.20510 85.97652 35786 ft 484 kts 294°
2026-05-07 09:47 9.23275 85.91436 35778 ft 484 kts 294°
2026-05-07 09:48 9.26046 85.85226 35774 ft 484 kts 295°
2026-05-07 09:48 9.28910 85.79061 35777 ft 484 kts 295°
2026-05-07 09:49 9.31786 85.72901 35777 ft 484 kts 295°
2026-05-07 09:49 9.34650 85.66735 35780 ft 484 kts 295°
2026-05-07 09:50 9.37507 85.60569 35773 ft 484 kts 295°
2026-05-07 09:50 9.40364 85.54399 35780 ft 484 kts 295°
2026-05-07 09:51 9.43218 85.48232 35778 ft 484 kts 295°
2026-05-07 09:51 9.46073 85.42061 35775 ft 484 kts 295°
2026-05-07 09:52 9.48931 85.35879 35768 ft 484 kts 295°
2026-05-07 09:52 9.51787 85.29699 35766 ft 485 kts 295°
2026-05-07 09:53 9.54645 85.23512 35778 ft 485 kts 295°
2026-05-07 09:53 9.57502 85.17322 35772 ft 485 kts 295°
2026-05-07 09:54 9.60358 85.11130 35777 ft 485 kts 295°
2026-05-07 09:54 9.63217 85.04929 35775 ft 485 kts 295°
2026-05-07 09:55 9.66054 84.98771 35775 ft 485 kts 295°
2026-05-07 09:55 9.68911 84.92569 35778 ft 485 kts 295°
2026-05-07 09:56 9.71765 84.86369 35778 ft 485 kts 295°
2026-05-07 09:56 9.74618 84.80168 35772 ft 485 kts 295°
2026-05-07 09:57 9.77471 84.73962 35774 ft 485 kts 295°
2026-05-07 09:57 9.80321 84.67760 35775 ft 485 kts 295°
2026-05-07 09:58 9.83171 84.61553 35776 ft 485 kts 295°
2026-05-07 09:58 9.86000 84.55390 35779 ft 485 kts 295°
2026-05-07 09:59 9.88847 84.49185 35774 ft 485 kts 295°
2026-05-07 09:59 9.91692 84.42980 35778 ft 485 kts 295°
2026-05-07 10:00 9.94537 84.36770 35777 ft 485 kts 295°
2026-05-07 10:00 9.97382 84.30558 35778 ft 485 kts 295°
2026-05-07 10:01 10.00227 84.24342 35776 ft 485 kts 295°
2026-05-07 10:01 10.03069 84.18130 35772 ft 485 kts 295°
2026-05-07 10:02 10.05910 84.11914 35775 ft 485 kts 295°
2026-05-07 10:02 10.08749 84.05699 35779 ft 485 kts 295°
2026-05-07 10:03 10.11570 83.99522 35779 ft 486 kts 295°
2026-05-07 10:03 10.14410 83.93299 35776 ft 486 kts 295°
2026-05-07 10:04 10.17252 83.87072 35775 ft 486 kts 295°
2026-05-07 10:04 10.20092 83.80839 35770 ft 486 kts 295°
2026-05-07 10:05 10.22931 83.74604 35778 ft 486 kts 295°
2026-05-07 10:05 10.25768 83.68373 35776 ft 486 kts 295°
2026-05-07 10:06 10.28604 83.62141 35778 ft 486 kts 295°
2026-05-07 10:06 10.31421 83.55944 35774 ft 486 kts 295°
2026-05-07 10:07 10.34253 83.49712 35781 ft 486 kts 295°
2026-05-07 10:07 10.37083 83.43482 35788 ft 485 kts 295°
2026-05-07 10:08 10.39904 83.37268 35780 ft 484 kts 295°
2026-05-07 10:08 10.42722 83.31056 35778 ft 484 kts 295°
2026-05-07 10:09 10.45535 83.24849 35774 ft 484 kts 295°
2026-05-07 10:09 10.48346 83.18645 35775 ft 483 kts 295°
2026-05-07 10:10 10.51157 83.12439 35781 ft 483 kts 294°
2026-05-07 10:10 10.53959 83.06247 35778 ft 482 kts 294°
2026-05-07 10:11 10.56760 83.00052 35774 ft 482 kts 294°
2026-05-07 10:11 10.59558 82.93862 35771 ft 482 kts 294°
2026-05-07 10:12 10.62106 82.87622 35773 ft 481 kts 286°
2026-05-07 10:12 10.63419 82.80936 35769 ft 480 kts 274°
2026-05-07 10:13 10.63697 82.74214 35778 ft 479 kts 271°
2026-05-07 10:13 10.63955 82.67449 35774 ft 478 kts 271°
2026-05-07 10:14 10.64211 82.60689 35772 ft 478 kts 271°
2026-05-07 10:14 10.64461 82.53934 35772 ft 478 kts 271°
2026-05-07 10:15 10.64668 82.48274 35767 ft 478 kts 271°
2026-05-07 10:15 10.64914 82.41520 35773 ft 478 kts 271°
2026-05-07 10:16 10.65159 82.34774 35786 ft 477 kts 271°
2026-05-07 10:16 10.65400 82.28079 35781 ft 476 kts 271°
2026-05-07 10:17 10.65641 82.21347 35776 ft 476 kts 271°
2026-05-07 10:17 10.65880 82.14628 35774 ft 476 kts 271°
2026-05-07 10:18 10.66118 82.07908 35776 ft 475 kts 271°
2026-05-07 10:18 10.66355 82.01184 35774 ft 475 kts 271°
2026-05-07 10:19 10.66590 81.94470 35763 ft 475 kts 271°
2026-05-07 10:19 10.66823 81.87755 35770 ft 475 kts 271°
2026-05-07 10:20 10.67056 81.81039 35770 ft 475 kts 271°
2026-05-07 10:20 10.67286 81.74335 35767 ft 475 kts 271°
2026-05-07 10:21 10.67515 81.67612 35765 ft 475 kts 271°
2026-05-07 10:21 10.67742 81.60935 35772 ft 475 kts 271°
2026-05-07 10:22 10.67969 81.54175 35770 ft 475 kts 271°
2026-05-07 10:22 10.68193 81.47503 35775 ft 475 kts 271°
2026-05-07 10:23 10.68416 81.40784 35773 ft 475 kts 271°
2026-05-07 10:23 10.68638 81.34066 35774 ft 476 kts 271°
2026-05-07 10:24 10.68873 81.26892 35779 ft 475 kts 272°
2026-05-07 10:24 10.69089 81.20187 35781 ft 475 kts 272°
2026-05-07 10:25 10.69307 81.13479 35776 ft 474 kts 272°
2026-05-07 10:25 10.69523 81.06779 35776 ft 474 kts 272°
2026-05-07 10:26 10.69736 81.00124 35776 ft 474 kts 272°
2026-05-07 10:26 10.69948 80.93434 35773 ft 474 kts 272°
2026-05-07 10:27 10.70159 80.86744 35776 ft 473 kts 272°
2026-05-07 10:27 10.70368 80.80064 35771 ft 472 kts 272°
2026-05-07 10:28 10.70576 80.73392 35762 ft 472 kts 272°
2026-05-07 10:28 10.70679 80.70070 35599 ft 469 kts 272°
2026-05-07 10:28 10.70781 80.66761 35107 ft 468 kts 272°
2026-05-07 10:28 10.70883 80.63448 34450 ft 469 kts 272°
2026-05-07 10:29 10.70984 80.60128 33737 ft 471 kts 272°
2026-05-07 10:29 10.71087 80.56794 32891 ft 473 kts 271°
2026-05-07 10:29 10.71190 80.53438 32022 ft 477 kts 271°
2026-05-07 10:30 10.71395 80.46742 30877 ft 471 kts 271°
2026-05-07 10:30 10.71496 80.43411 30107 ft 472 kts 270°
2026-05-07 10:30 10.71597 80.40080 29422 ft 471 kts 270°
2026-05-07 10:30 10.71696 80.36766 28848 ft 465 kts 270°
2026-05-07 10:31 10.71794 80.33499 28274 ft 460 kts 270°
2026-05-07 10:31 10.71890 80.30260 27689 ft 456 kts 270°
2026-05-07 10:31 10.71985 80.27051 27114 ft 452 kts 270°
2026-05-07 10:31 10.72078 80.23870 26556 ft 448 kts 270°
2026-05-07 10:32 10.72171 80.20710 26001 ft 445 kts 270°
2026-05-07 10:32 10.72263 80.17580 25472 ft 441 kts 270°
2026-05-07 10:32 10.72354 80.14473 24887 ft 439 kts 270°
2026-05-07 10:32 10.72443 80.11426 24385 ft 435 kts 270°
2026-05-07 10:33 10.72532 80.08357 23879 ft 432 kts 271°
2026-05-07 10:33 10.72616 80.05317 23406 ft 428 kts 270°
2026-05-07 10:33 10.72696 80.02298 22827 ft 425 kts 270°
2026-05-07 10:33 10.72777 79.99303 22298 ft 422 kts 270°
2026-05-07 10:34 10.72854 79.96337 21881 ft 416 kts 270°
2026-05-07 10:34 10.72931 79.93421 21131 ft 410 kts 270°
2026-05-07 10:34 10.73008 79.90537 20375 ft 405 kts 270°
2026-05-07 10:34 10.73083 79.87692 19649 ft 400 kts 270°
2026-05-07 10:35 10.73158 79.84889 18958 ft 394 kts 270°
2026-05-07 10:35 10.73231 79.82117 18272 ft 389 kts 271°
2026-05-07 10:35 10.73302 79.79383 17526 ft 385 kts 271°
2026-05-07 10:35 10.73373 79.76677 16777 ft 380 kts 271°
2026-05-07 10:36 10.73442 79.74007 16025 ft 376 kts 271°
2026-05-07 10:36 10.73510 79.71361 15355 ft 370 kts 271°
2026-05-07 10:36 10.73578 79.68792 14998 ft 361 kts 272°
2026-05-07 10:36 10.73711 79.66249 14340 ft 367 kts 274°
2026-05-07 10:37 10.73893 79.63662 13846 ft 367 kts 274°
2026-05-07 10:37 10.74080 79.61083 13365 ft 364 kts 275°
2026-05-07 10:37 10.74258 79.58522 12828 ft 362 kts 274°
2026-05-07 10:37 10.74428 79.55969 12301 ft 361 kts 275°
2026-05-07 10:38 10.74593 79.53431 11798 ft 359 kts 274°
2026-05-07 10:38 10.74755 79.50908 11321 ft 355 kts 275°
2026-05-07 10:38 10.74914 79.48415 10621 ft 352 kts 275°
2026-05-07 10:38 10.75069 79.45987 10379 ft 335 kts 275°
2026-05-07 10:39 10.75214 79.43693 10212 ft 316 kts 275°
2026-05-07 10:39 10.75352 79.41526 10061 ft 298 kts 275°
2026-05-07 10:39 10.75482 79.39486 9914 ft 280 kts 275°
2026-05-07 10:39 10.75605 79.37545 9514 ft 275 kts 275°
2026-05-07 10:40 10.75731 79.35598 8919 ft 276 kts 275°
2026-05-07 10:40 10.75855 79.33661 8416 ft 273 kts 275°
2026-05-07 10:40 10.75977 79.31736 7902 ft 272 kts 275°
2026-05-07 10:40 10.76100 79.29820 7456 ft 270 kts 275°
2026-05-07 10:41 10.76220 79.27931 7004 ft 266 kts 275°
2026-05-07 10:41 10.76339 79.26052 6501 ft 266 kts 274°
2026-05-07 10:41 10.76458 79.24178 6064 ft 267 kts 275°
2026-05-07 10:41 10.76577 79.22309 5808 ft 262 kts 274°
2026-05-07 10:42 10.76693 79.20464 5450 ft 262 kts 275°
2026-05-07 10:42 10.76809 79.18646 5213 ft 256 kts 274°
2026-05-07 10:42 10.76919 79.16881 5090 ft 244 kts 275°
2026-05-07 10:42 10.77024 79.15203 4981 ft 231 kts 274°
2026-05-07 10:43 10.77125 79.13616 4875 ft 219 kts 274°
2026-05-07 10:43 10.77220 79.12097 4745 ft 209 kts 274°
2026-05-07 10:43 10.77315 79.10581 4759 ft 220 kts 275°
2026-05-07 10:43 10.77381 79.09544 4741 ft 215 kts 275°
2026-05-07 10:44 10.77508 79.07537 4746 ft 214 kts 274°
2026-05-07 10:44 10.77572 79.06514 4746 ft 215 kts 274°
2026-05-07 10:44 10.77666 79.05012 4664 ft 210 kts 274°
2026-05-07 10:44 10.77782 79.03120 4543 ft 196 kts 275°
2026-05-07 10:45 10.77872 79.01702 4528 ft 206 kts 275°
2026-05-07 10:45 10.77933 79.00713 4528 ft 208 kts 275°
2026-05-07 10:45 10.78024 78.99274 4455 ft 205 kts 274°
2026-05-07 10:45 10.78113 78.97853 4233 ft 201 kts 275°
2026-05-07 10:46 10.78200 78.96441 4130 ft 202 kts 275°
2026-05-07 10:46 10.78290 78.94988 4036 ft 206 kts 275°
2026-05-07 10:46 10.78378 78.93550 3893 ft 200 kts 273°
2026-05-07 10:46 10.78372 78.92140 3740 ft 200 kts 267°
2026-05-07 10:47 10.78265 78.90728 3498 ft 199 kts 265°
2026-05-07 10:47 10.78143 78.89344 3258 ft 194 kts 265°
2026-05-07 10:47 10.78027 78.87987 3015 ft 191 kts 264°
2026-05-07 10:47 10.77912 78.86655 2784 ft 188 kts 265°
2026-05-07 10:48 10.77799 78.85339 2555 ft 186 kts 264°
2026-05-07 10:48 10.77686 78.84034 2308 ft 184 kts 265°
2026-05-07 10:48 10.77578 78.82763 2085 ft 175 kts 265°
2026-05-07 10:48 10.77476 78.81575 1860 ft 163 kts 264°
2026-05-07 10:49 10.77380 78.80464 1671 ft 158 kts 264°
2026-05-07 10:49 10.77282 78.79334 1464 ft 160 kts 264°
2026-05-07 10:49 10.77186 78.78215 1274 ft 158 kts 264°
2026-05-07 10:49 10.77089 78.77099 1077 ft 157 kts 264°
2026-05-07 10:50 10.76994 78.75986 885 ft 157 kts 264°
2026-05-07 10:50 10.76900 78.74895 686 ft 154 kts 265°
2026-05-07 10:50 10.76801 78.73792 449 ft 156 kts 265°
2026-05-07 10:50 10.76690 78.72709 299 ft 151 kts 266°
2026-05-07 10:51 10.76623 78.71754 293 ft 104 kts 266°
2026-05-07 10:51 10.76590 78.71296 297 ft 45 kts 266°
2026-05-07 10:51 10.76561 78.70985 300 ft 41 kts 265°
2026-05-07 10:51 10.76522 78.70890 303 ft 9 kts 196°
2026-05-07 10:52 10.76449 78.70873 303 ft 12 kts 193°
2026-05-07 10:52 10.76359 78.70870 302 ft 14 kts 155°
2026-05-07 10:52 10.76269 78.70928 301 ft 17 kts 147°
2026-05-07 10:52 10.76162 78.70991 300 ft 19 kts 148°
2026-05-07 10:53 10.76122 78.70995 302 ft 4 kts 232°
2026-05-07 10:53 10.76103 78.70965 301 ft 6 kts 236°
2026-05-07 10:53 10.76093 78.70949 301 ft 1 kts 238°